Hourly Weather Manù

Today, 27 July, Tuesday

Time Temperature Precipitation Wind Pressure Humidity
00:00 +19°C° 0 mm 1 mps 651 mmHg 82%
01:00 +19°C° 0 mm 1 mps 651 mmHg 82%
02:00 +18°C° 0 mm 1 mps 650 mmHg 82%
03:00 +18°C° 0 mm 1 mps 650 mmHg 82%
04:00 +16°C° 0 mm 1 mps 650 mmHg 82%
05:00 +18°C° 0 mm 1 mps 651 mmHg 79%
06:00 +18°C° 0 mm 1 mps 651 mmHg 77%
07:00 +18°C° 0 mm 1 mps 652 mmHg 74%
08:00 +21°C° 0 mm 1 mps 652 mmHg 66%
09:00 +24°C° 0 mm 1 mps 653 mmHg 58%
10:00 +27°C° 0 mm 1 mps 654 mmHg 51%
11:00 +26°C° 0.3 mm 1 mps 654 mmHg 56%
12:00 +26°C° 0.3 mm 1 mps 653 mmHg 62%
13:00 +25°C° 0.3 mm 1 mps 653 mmHg 67%
14:00 +24°C° 0.7 mm 1 mps 652 mmHg 74%
15:00 +23°C° 0.7 mm 1 mps 651 mmHg 82%
16:00 +19°C° 0.7 mm 0 mps 651 mmHg 89%
17:00 +20°C° 0.2 mm 1 mps 651 mmHg 91%
18:00 +19°C° 0.2 mm 1 mps 651 mmHg 92%
19:00 +19°C° 0.2 mm 1 mps 651 mmHg 94%
20:00 +18°C° 0.1 mm 1 mps 651 mmHg 94%
21:00 +18°C° 0.1 mm 1 mps 651 mmHg 93%
22:00 +18°C° 0.1 mm 1 mps 652 mmHg 93%
23:00 +18°C° 0.2 mm 1 mps 652 mmHg 94%

Tomorrow, 28 July, Wednesday

Time Temperature Precipitation Wind Pressure Humidity
00:00 +18°C° 0.2 mm 1 mps 651 mmHg 94%
01:00 +16°C° 0.2 mm 1 mps 651 mmHg 95%
02:00 +16°C° 0.2 mm 1 mps 651 mmHg 96%
03:00 +16°C° 0.2 mm 1 mps 651 mmHg 96%
04:00 +15°C° 0.2 mm 1 mps 651 mmHg 97%
05:00 +16°C° 0 mm 1 mps 651 mmHg 97%
06:00 +16°C° 0 mm 1 mps 652 mmHg 96%
07:00 +15°C° 0 mm 0 mps 652 mmHg 96%
08:00 +18°C° 0.1 mm 1 mps 653 mmHg 94%
09:00 +18°C° 0.1 mm 1 mps 653 mmHg 93%
10:00 +19°C° 0.1 mm 1 mps 654 mmHg 91%
11:00 +19°C° 0.2 mm 1 mps 653 mmHg 91%
12:00 +19°C° 0.2 mm 1 mps 653 mmHg 91%
13:00 +19°C° 0.2 mm 1 mps 652 mmHg 90%
14:00 +19°C° 0.1 mm 1 mps 652 mmHg 92%
15:00 +18°C° 0.1 mm 1 mps 651 mmHg 93%
16:00 +18°C° 0.1 mm 1 mps 651 mmHg 94%
17:00 +18°C° 0.1 mm 1 mps 651 mmHg 95%
18:00 +16°C° 0.1 mm 1 mps 652 mmHg 95%
19:00 +15°C° 0.1 mm 0 mps 652 mmHg 96%
20:00 +16°C° 0.1 mm 1 mps 652 mmHg 96%
21:00 +16°C° 0.1 mm 1 mps 653 mmHg 95%
22:00 +15°C° 0.1 mm 1 mps 653 mmHg 95%
23:00 +15°C° 0.1 mm 1 mps 653 mmHg 95%

Day after tomorrow, 29 July, Thursday

Time Temperature Precipitation Wind Pressure Humidity
00:00 +14°C° 0.1 mm 1 mps 653 mmHg 94%
01:00 +14°C° 0.1 mm 1 mps 653 mmHg 94%
02:00 +14°C° 0.1 mm 1 mps 653 mmHg 95%
03:00 +12°C° 0.1 mm 0 mps 652 mmHg 96%
04:00 +12°C° 0.1 mm 0 mps 652 mmHg 97%
05:00 +12°C° 0.2 mm 0 mps 653 mmHg 97%
06:00 +12°C° 0.2 mm 1 mps 653 mmHg 97%
07:00 +12°C° 0.2 mm 1 mps 653 mmHg 97%
08:00 +12°C° 0.2 mm 1 mps 654 mmHg 97%
09:00 +12°C° 0.2 mm 1 mps 654 mmHg 97%
10:00 +12°C° 0.2 mm 1 mps 654 mmHg 97%
11:00 +13°C° 0.1 mm 1 mps 654 mmHg 96%
12:00 +12°C° 0.1 mm 0 mps 654 mmHg 95%
13:00 +12°C° 0.1 mm 0 mps 653 mmHg 94%
14:00 +13°C° 0 mm 0 mps 653 mmHg 92%
15:00 +13°C° 0 mm 0 mps 652 mmHg 91%
16:00 +13°C° 0 mm 0 mps 652 mmHg 89%
17:00 +13°C° 0 mm 0 mps 652 mmHg 90%
18:00 +13°C° 0 mm 0 mps 652 mmHg 92%
19:00 +12°C° 0 mm 0 mps 652 mmHg 94%
20:00 +12°C° 0 mm 0 mps 652 mmHg 94%
21:00 +12°C° 0 mm 0 mps 652 mmHg 94%
22:00 +12°C° 0 mm 0 mps 652 mmHg 94%
23:00 +11°C° 0 mm 0 mps 652 mmHg 93%

30 July, Friday

Time Temperature Precipitation Wind Pressure Humidity
00:00 +12°C° 0 mm 1 mps 652 mmHg 93%
01:00 +12°C° 0 mm 1 mps 652 mmHg 93%
02:00 +12°C° 0 mm 1 mps 652 mmHg 93%
03:00 +11°C° 0 mm 0 mps 652 mmHg 93%
04:00 +11°C° 0 mm 0 mps 652 mmHg 93%
05:00 +12°C° 0 mm 0 mps 652 mmHg 91%
06:00 +12°C° 0 mm 0 mps 653 mmHg 90%
07:00 +13°C° 0 mm 0 mps 653 mmHg 88%
08:00 +14°C° 0 mm 0 mps 654 mmHg 80%
09:00 +18°C° 0 mm 1 mps 655 mmHg 72%
10:00 +20°C° 0 mm 1 mps 655 mmHg 65%
11:00 +20°C° 0 mm 1 mps 655 mmHg 63%
12:00 +21°C° 0 mm 1 mps 654 mmHg 61%
13:00 +22°C° 0 mm 1 mps 654 mmHg 60%
14:00 +21°C° 0 mm 1 mps 653 mmHg 61%
15:00 +21°C° 0 mm 1 mps 653 mmHg 63%
16:00 +21°C° 0 mm 1 mps 652 mmHg 65%
17:00 +17°C° 0 mm 0 mps 652 mmHg 72%
18:00 +16°C° 0 mm 0 mps 652 mmHg 78%
19:00 +14°C° 0 mm 0 mps 652 mmHg 85%
20:00 +15°C° 0 mm 1 mps 652 mmHg 87%
21:00 +14°C° 0 mm 1 mps 653 mmHg 88%
22:00 +14°C° 0 mm 1 mps 653 mmHg 90%
23:00 +14°C° 0 mm 1 mps 652 mmHg 90%

31 July, Saturday

Time Temperature Precipitation Wind Pressure Humidity
00:00 +13°C° 0 mm 1 mps 652 mmHg 90%
01:00 +13°C° 0 mm 1 mps 652 mmHg 89%
02:00 +13°C° 0 mm 1 mps 652 mmHg 89%
03:00 +13°C° 0 mm 1 mps 652 mmHg 88%
04:00 +13°C° 0 mm 1 mps 652 mmHg 88%
05:00 +14°C° 0 mm 1 mps 652 mmHg 85%
06:00 +14°C° 0 mm 1 mps 653 mmHg 83%
07:00 +14°C° 0 mm 0 mps 653 mmHg 80%
08:00 +18°C° 0 mm 1 mps 654 mmHg 72%
09:00 +20°C° 0 mm 1 mps 655 mmHg 64%
10:00 +23°C° 0 mm 1 mps 655 mmHg 56%
11:00 +23°C° 0.1 mm 1 mps 655 mmHg 57%
12:00 +23°C° 0.1 mm 1 mps 654 mmHg 57%
13:00 +24°C° 0.1 mm 1 mps 654 mmHg 57%
14:00 +23°C° 0.1 mm 1 mps 653 mmHg 61%
15:00 +22°C° 0.1 mm 1 mps 653 mmHg 65%
16:00 +20°C° 0.1 mm 0 mps 652 mmHg 69%
17:00 +19°C° 0 mm 0 mps 653 mmHg 73%
18:00 +18°C° 0 mm 0 mps 653 mmHg 77%
19:00 +18°C° 0 mm 1 mps 653 mmHg 81%
20:00 +18°C° 0 mm 1 mps 653 mmHg 82%
21:00 +16°C° 0 mm 1 mps 653 mmHg 84%
22:00 +16°C° 0 mm 1 mps 653 mmHg 86%
23:00 +15°C° 0 mm 1 mps 653 mmHg 85%

1 August, Sunday

Time Temperature Precipitation Wind Pressure Humidity
00:00 +15°C° 0 mm 1 mps 653 mmHg 85%
01:00 +15°C° 0 mm 1 mps 653 mmHg 85%
02:00 +15°C° 0 mm 1 mps 653 mmHg 84%
03:00 +15°C° 0 mm 1 mps 653 mmHg 84%
04:00 +14°C° 0 mm 1 mps 653 mmHg 83%
05:00 +15°C° 0 mm 1 mps 654 mmHg 81%
06:00 +16°C° 0 mm 1 mps 655 mmHg 79%
07:00 +15°C° 0 mm 0 mps 656 mmHg 78%
08:00 +19°C° 0 mm 1 mps 656 mmHg 74%
09:00 +20°C° 0 mm 1 mps 657 mmHg 70%
10:00 +21°C° 0 mm 1 mps 657 mmHg 66%
11:00 +22°C° 0.1 mm 1 mps 657 mmHg 65%
12:00 +22°C° 0.1 mm 1 mps 656 mmHg 65%
13:00 +23°C° 0.1 mm 1 mps 656 mmHg 64%
14:00 +22°C° 0.2 mm 1 mps 655 mmHg 69%
15:00 +21°C° 0.2 mm 1 mps 655 mmHg 73%
16:00 +21°C° 0.2 mm 1 mps 654 mmHg 78%
17:00 +20°C° 0.1 mm 1 mps 654 mmHg 81%
18:00 +18°C° 0.1 mm 1 mps 654 mmHg 85%
19:00 +16°C° 0.1 mm 1 mps 654 mmHg 89%
20:00 +16°C° 0 mm 1 mps 655 mmHg 89%
21:00 +16°C° 0 mm 1 mps 655 mmHg 89%
22:00 +16°C° 0 mm 1 mps 656 mmHg 89%
23:00 +16°C° 0.1 mm 1 mps 655 mmHg 89%
Show more

We Need Your Consent

Meteoprog and our Service Providers may store and access personal data such as cookies, device identifiers or other similar technologies on your device and process such data to personalise content and ads, as well as provide social media features and to analyse the traffic.

  • Store and/or access information on your device

    Cookies, device identifiers or other information can be stored or accessed on your device for the purposes indicated above.

  • Personalised ads and content, ad and content measurement, audience insights, and products development

    Ads and content can be personalised based on a profile. More data can be added to better personalise ads and content. Ad and content performance can be measured. Insights about the audience who saw the ads and content can be derived. Such data can be used to develop or improve user’s experience, systems and software.

By clicking ‘I Agree’ you will allow the use of indicated cookies, device identifiers, web beacons or other similar technologies. Your settings can be changed in the browser on your device.

For certain purposes, legitimate interests may be relied on, rather than consent. You can read more about this in our Privacy and Cookie Policy.